FW7787 Weather Reports


Display with metric or nautical units.
time (UTC)temp
F
wind
direction
speed
MPH
gust
MPH
rain 1hr
in
rain 24hr
in
rain mn
in
humidity
%
barometer
mb
20260503024537 81 0 0.0 5.0 0.00 0.00 0.00 71 1015.7
20260503024018 81 0 0.0 5.0 0.00 0.00 0.00 70 1015.8
20260503023518 82 0 0.0 5.0 0.00 0.00 0.00 70 1015.7
20260503023037 82 0 0.0 5.0 0.00 0.00 0.00 69 1015.7
20260503022518 82 0 0.0 5.0 0.00 0.00 0.00 69 1015.7
20260503022017 82 0 0.0 0.0 0.00 0.00 0.00 68 1015.5
20260503021535 82 0 0.0 5.0 0.00 0.00 0.00 68 1015.6
20260503021019 82 0 0.0 5.0 0.00 0.00 0.00 67 1015.6
20260503020519 82 0 0.0 4.0 0.00 0.00 0.00 66 1015.5
20260503020035 82 0 0.0 6.0 0.00 0.00 0.00 66 1015.5
20260503015521 82 0 0.0 6.0 0.00 0.00 0.00 65 1015.6
20260503015016 83 0 1.0 6.0 0.00 0.00 0.00 64 1015.6
20260503014534 83 0 0.0 4.0 0.00 0.00 0.00 64 1015.6
20260503014017 83 0 0.0 5.0 0.00 0.00 0.00 63 1015.6
20260503013519 83 0 0.0 5.0 0.00 0.00 0.00 62 1015.4
20260503013040 83 0 0.0 7.0 0.00 0.00 0.00 62 1015.4
20260503012518 83 0 0.0 7.0 0.00 0.00 0.00 61 1015.3
20260503012016 84 287 0.0 6.0 0.00 0.00 0.00 60 1015.2
20260503011536 84 0 0.0 6.0 0.00 0.00 0.00 59 1015.1
20260503011020 84 305 0.0 7.0 0.00 0.00 0.00 58 1015.0
20260503010520 84 271 0.0 7.0 0.00 0.00 0.00 58 1014.9
20260503010035 84 277 0.0 9.0 0.00 0.00 0.00 57 1014.8
20260503005522 84 245 1.0 9.0 0.00 0.00 0.00 57 1014.8
20260503005024 85 0 0.0 8.0 0.00 0.00 0.00 56 1014.7
20260503004537 85 0 0.0 8.0 0.00 0.00 0.00 55 1014.6
20260503004023 85 0 1.0 8.0 0.00 0.00 0.00 55 1014.6
20260503003519 85 258 1.0 8.0 0.00 0.00 0.00 55 1014.5
20260503003044 85 0 0.0 7.0 0.00 0.00 0.00 55 1014.4
20260503002519 85 255 0.0 9.0 0.00 0.00 0.00 54 1014.3
20260503002020 86 0 0.0 10.0 0.00 0.00 0.00 53 1014.1
20260503001545 86 0 1.0 10.0 0.00 0.00 0.00 53 1014.1
20260503001019 86 259 1.0 10.0 0.00 0.00 0.00 52 1014.1
20260503000523 87 287 0.0 10.0 0.00 0.00 0.00 51 1013.9
20260503000041 87 0 2.0 10.0 0.00 0.00 0.00 49 1013.8
20260502235519 88 0 0.0 12.0 0.00 0.00 0.00 46 1013.7
20260502235020 88 0 2.0 12.0 0.00 0.00 0.00 45 1013.6
20260502234548 88 0 2.0 11.0 0.00 0.00 0.00 44 1013.5
20260502234020 88 0 1.0 8.0 0.00 0.00 0.00 43 1013.4
20260502233520 89 0 1.0 9.0 0.00 0.00 0.00 42 1013.3
20260502233040 89 0 1.0 10.0 0.00 0.00 0.00 42 1013.2
20260502232524 89 0 0.0 10.0 0.00 0.00 0.00 41 1013.1
20260502232018 89 288 1.0 10.0 0.00 0.00 0.00 41 1013.1
20260502231535 90 271 0.0 9.0 0.00 0.00 0.00 40 1012.9
20260502231021 90 0 0.0 6.0 0.00 0.00 0.00 39 1012.8
20260502230519 90 0 0.0 6.0 0.00 0.00 0.00 40 1012.7
20260502230037 91 0 1.0 9.0 0.00 0.00 0.00 39 1012.7
20260502225520 91 0 2.0 12.0 0.00 0.00 0.00 38 1012.5
20260502225019 92 0 1.0 12.0 0.00 0.00 0.00 38 1012.6
20260502224542 92 0 1.0 12.0 0.00 0.00 0.00 37 1012.5
20260502224020 93 0 0.0 6.0 0.00 0.00 0.00 36 1012.5
20260502223521 93 0 0.0 5.0 0.00 0.00 0.00 38 1012.4
20260502223042 92 0 0.0 7.0 0.00 0.00 0.00 38 1012.4
20260502222521 92 0 0.0 9.0 0.00 0.00 0.00 40 1012.4
20260502222019 92 278 1.0 9.0 0.00 0.00 0.00 39 1012.4
20260502221537 93 280 1.0 8.0 0.00 0.00 0.00 39 1012.4
20260502221019 93 0 1.0 8.0 0.00 0.00 0.00 39 1012.4
20260502220518 92 0 0.0 9.0 0.00 0.00 0.00 39 1012.4
20260502220035 93 185 2.0 11.0 0.00 0.00 0.00 38 1012.4
20260502215519 93 286 1.0 11.0 0.00 0.00 0.00 38 1012.4
20260502215020 93 0 1.0 13.0 0.00 0.00 0.00 37 1012.3
20260502214544 93 0 2.0 13.0 0.00 0.00 0.00 37 1012.3
20260502214020 93 186 3.0 13.0 0.00 0.00 0.00 36 1012.3
20260502213518 94 0 1.0 10.0 0.00 0.00 0.00 36 1012.3
20260502213036 94 0 2.0 10.0 0.00 0.00 0.00 36 1012.2
20260502212518 94 289 0.0 15.0 0.00 0.00 0.00 34 1012.3
20260502212018 94 0 0.0 15.0 0.00 0.00 0.00 35 1012.1
20260502211536 94 280 5.0 14.0 0.00 0.00 0.00 35 1012.2
20260502211018 94 285 3.0 14.0 0.00 0.00 0.00 34 1012.1
20260502210519 95 302 3.0 11.0 0.00 0.00 0.00 33 1012.0
20260502210037 95 0 0.0 11.0 0.00 0.00 0.00 34 1012.0
20260502205518 95 277 4.0 11.0 0.00 0.00 0.00 33 1012.2
20260502205018 96 271 0.0 7.0 0.00 0.00 0.00 32 1012.1
20260502204530 95 236 1.0 7.0 0.00 0.00 0.00 33 1012.0
20260502204017 95 0 1.0 13.0 0.00 0.00 0.00 34 1012.0
20260502203521 95 0 0.0 13.0 0.00 0.00 0.00 34 1012.1
20260502203042 95 0 1.0 16.0 0.00 0.00 0.00 35 1012.1
20260502202521 94 0 3.0 16.0 0.00 0.00 0.00 33 1012.0
20260502202017 94 0 1.0 10.0 0.00 0.00 0.00 33 1012.1
20260502201535 94 287 4.0 14.0 0.00 0.00 0.00 36 1012.2
20260502201017 94 0 4.0 14.0 0.00 0.00 0.00 37 1012.3
20260502200521 94 0 4.0 11.0 0.00 0.00 0.00 36 1012.4
20260502200035 95 249 2.0 9.0 0.00 0.00 0.00 38 1012.3
20260502195519 95 273 2.0 8.0 0.00 0.00 0.00 37 1012.5
20260502195018 94 0 2.0 9.0 0.00 0.00 0.00 39 1012.5
20260502194534 94 0 3.0 9.0 0.00 0.00 0.00 39 1012.5
20260502194018 93 0 1.0 15.0 0.00 0.00 0.00 41 1012.5
20260502193518 93 274 5.0 15.0 0.00 0.00 0.00 41 1012.7
20260502193039 94 271 2.0 11.0 0.00 0.00 0.00 39 1012.8
20260502192518 94 263 2.0 18.0 0.00 0.00 0.00 41 1012.8
20260502192017 94 284 3.0 18.0 0.00 0.00 0.00 41 1012.7
20260502191539 94 283 4.0 14.0 0.00 0.00 0.00 40 1012.8
20260502191021 94 308 5.0 14.0 0.00 0.00 0.00 39 1012.9
20260502190518 94 284 3.0 14.0 0.00 0.00 0.00 38 1012.8
20260502190042 95 330 2.0 11.0 0.00 0.00 0.00 37 1012.8
20260502185519 94 0 1.0 15.0 0.00 0.00 0.00 39 1012.9
20260502185018 94 274 3.0 15.0 0.00 0.00 0.00 40 1012.9
20260502184538 93 300 4.0 14.0 0.00 0.00 0.00 40 1012.9
20260502184018 93 203 4.0 15.0 0.00 0.00 0.00 42 1013.0
20260502183517 92 0 0.0 15.0 0.00 0.00 0.00 45 1012.9
20260502183031 92 152 5.0 15.0 0.00 0.00 0.00 45 1013.0
20260502182518 92 0 3.0 12.0 0.00 0.00 0.00 46 1013.0
20260502182019 92 0 0.0 12.0 0.00 0.00 0.00 48 1013.0
20260502181537 92 257 1.0 17.0 0.00 0.00 0.00 47 1013.2
20260502181018 92 0 0.0 17.0 0.00 0.00 0.00 48 1013.1
20260502180518 91 203 3.0 10.0 0.00 0.00 0.00 48 1013.1
20260502170518 91 308 0.0 10.0 0.00 0.00 0.00 54 1013.4
20260502164017 91 0 0.0 10.0 0.00 0.00 0.00 54 1013.6
20260502163518 91 0 0.0 15.0 0.00 0.00 0.00 54 1013.7
20260502163047 89 0 0.0 15.0 0.00 0.00 0.00 58 1013.7
20260502162519 90 0 1.0 13.0 0.00 0.00 0.00 58 1013.7
20260502162018 90 0 2.0 12.0 0.00 0.00 0.00 57 1013.8
20260502161535 91 0 0.0 10.0 0.00 0.00 0.00 56 1013.8
20260502161018 91 0 1.0 10.0 0.00 0.00 0.00 56 1013.8
20260502160520 90 0 0.0 9.0 0.00 0.00 0.00 60 1013.8
20260502152017 90 0 1.0 8.0 0.00 0.00 0.00 61 1014.2
20260502151549 90 196 1.0 10.0 0.00 0.00 0.00 62 1014.2
20260502151020 89 0 0.0 11.0 0.00 0.00 0.00 62 1014.1
20260502150517 89 0 0.0 11.0 0.00 0.00 0.00 62 1014.2
20260502130518 84 0 0.0 8.0 0.00 0.00 0.00 72 1013.9
20260502123517 82 0 0.0 5.0 0.00 0.00 0.00 73 1013.9
20260502123046 82 0 0.0 5.0 0.00 0.00 0.00 72 1013.8
20260502122521 81 0 0.0 5.0 0.00 0.00 0.00 72 1013.9
20260502122017 81 0 0.0 0.0 0.00 0.00 0.00 71 1013.9
20260502121535 80 0 0.0 0.0 0.00 0.00 0.00 70 1013.9
20260502121019 80 0 0.0 0.0 0.00 0.00 0.00 67 1014.0
20260502120520 79 0 0.0 0.0 0.00 0.00 0.00 63 1013.8
20260502115518 78 0 0.0 0.0 0.00 0.00 0.00 53 1013.9
20260502115019 78 0 0.0 0.0 0.00 0.00 0.00 47 1013.8
20260502114533 77 0 0.0 1.0 0.00 0.00 0.00 44 1013.9
20260502114019 77 0 0.0 1.0 0.00 0.00 0.00 42 1013.9
20260502113521 77 0 0.0 0.0 0.00 0.00 0.00 40 1013.9
20260502113030 76 0 0.0 1.0 0.00 0.00 0.00 38 1013.8
20260502112518 76 0 0.0 1.0 0.00 0.00 0.00 38 1013.9
20260502112019 76 0 0.0 0.0 0.00 0.00 0.00 39 1013.9
20260502111539 76 0 0.0 0.0 0.00 0.00 0.00 38 1013.9
20260502111019 76 0 0.0 0.0 0.00 0.00 0.00 37 1014.0
20260502110519 76 0 0.0 0.0 0.00 0.00 0.00 37 1014.0
20260502110036 76 0 0.0 0.0 0.00 0.00 0.00 36 1014.0
20260502105522 75 0 0.0 0.0 0.00 0.00 0.00 35 1013.9
20260502105020 75 0 0.0 0.0 0.00 0.00 0.00 36 1013.8
20260502104537 75 0 0.0 0.0 0.00 0.00 0.00 36 1013.8
20260502104019 75 0 0.0 0.0 0.00 0.00 0.00 36 1013.8
20260502103518 75 0 0.0 0.0 0.00 0.00 0.00 36 1013.8
20260502103030 75 0 0.0 0.0 0.00 0.00 0.00 37 1013.8
20260502102520 75 0 0.0 0.0 0.00 0.00 0.00 35 1013.7
20260502102018 75 0 0.0 0.0 0.00 0.00 0.00 37 1013.7
20260502101532 75 0 0.0 0.0 0.00 0.00 0.00 37 1013.8
20260502101019 75 0 0.0 0.0 0.00 0.00 0.00 39 1013.9
20260502100519 75 0 0.0 0.0 0.00 0.00 0.00 39 1013.8
20260502091531 75 0 0.0 0.0 0.00 0.00 0.00 44 1013.7
20260502091017 75 0 0.0 0.0 0.00 0.00 0.00 43 1013.6
20260502090517 75 0 0.0 0.0 0.00 0.00 0.00 44 1013.6
20260502071019 75 0 0.0 0.0 0.00 0.00 0.00 46 1013.5
20260502070516 75 0 0.0 0.0 0.00 0.00 0.00 46 1013.6
20260502070039 75 0 0.0 0.0 0.00 0.00 0.00 47 1013.5
20260502065519 75 0 0.0 0.0 0.00 0.00 0.00 45 1013.6
20260502065017 75 0 0.0 0.0 0.00 0.00 0.00 48 1013.6
20260502064534 75 0 0.0 0.0 0.00 0.00 0.00 47 1013.6
20260502064025 75 0 0.0 0.0 0.00 0.00 0.00 50 1013.7
20260502063518 75 0 0.0 0.0 0.00 0.00 0.00 50 1013.6
20260502063033 75 0 0.0 0.0 0.00 0.00 0.00 50 1013.6
20260502062518 75 0 0.0 0.0 0.00 0.00 0.00 51 1013.7
20260502062017 75 0 0.0 0.0 0.00 0.00 0.00 52 1013.8
20260502061540 75 0 0.0 0.0 0.00 0.00 0.00 53 1013.8
20260502061017 75 0 0.0 0.0 0.00 0.00 0.00 54 1013.9
20260502060515 75 0 0.0 0.0 0.00 0.00 0.00 53 1013.7
20260502060035 75 0 0.0 0.0 0.00 0.00 0.00 56 1013.6
20260502055519 75 0 0.0 0.0 0.00 0.00 0.00 55 1013.7
20260502055015 75 0 0.0 0.0 0.00 0.00 0.00 57 1013.7
20260502054536 76 0 0.0 0.0 0.00 0.00 0.00 58 1013.8
20260502054021 76 0 0.0 0.0 0.00 0.00 0.00 58 1013.7
20260502053515 76 0 0.0 0.0 0.00 0.00 0.00 59 1013.7
20260502053037 76 0 0.0 0.0 0.00 0.00 0.00 58 1013.7
20260502052518 76 0 0.0 0.0 0.00 0.00 0.00 60 1013.9
20260502052018 76 0 0.0 0.0 0.00 0.00 0.00 60 1013.9
20260502051533 76 0 0.0 0.0 0.00 0.00 0.00 61 1014.0
20260502051018 76 0 0.0 0.0 0.00 0.00 0.00 63 1014.0
20260502050525 76 0 0.0 0.0 0.00 0.00 0.00 63 1013.9
20260502050036 77 0 0.0 0.0 0.00 0.00 0.00 62 1014.1
20260502045519 77 0 0.0 0.0 0.00 0.00 0.00 62 1014.1
20260502045017 77 0 0.0 0.0 0.00 0.00 0.00 63 1014.0
20260502044535 77 0 0.0 0.0 0.00 0.00 0.00 64 1014.2
20260502044018 77 0 0.0 0.0 0.00 0.00 0.00 65 1014.1
20260502043515 77 0 0.0 0.0 0.00 0.00 0.00 66 1014.2
20260502043036 77 0 0.0 0.0 0.00 0.00 0.00 67 1014.3
20260502042518 77 0 0.0 0.0 0.00 0.00 0.00 68 1014.3
20260502042018 77 0 0.0 0.0 0.00 0.00 0.00 69 1014.3
20260502041536 77 0 0.0 0.0 0.00 0.00 0.00 69 1014.5
20260502041015 77 0 0.0 0.0 0.00 0.00 0.00 70 1014.5
20260502040520 77 0 0.0 0.0 0.00 0.00 0.00 70 1014.7
20260502040037 78 0 0.0 0.0 0.00 0.00 0.00 71 1014.7
20260502035518 78 0 0.0 0.0 0.00 0.00 0.00 71 1014.7
20260502035021 78 0 0.0 0.0 0.00 0.00 0.00 71 1014.7
20260502034530 78 0 0.0 0.0 0.00 0.00 0.00 71 1014.6
20260502034018 78 0 0.0 0.0 0.00 0.00 0.00 71 1014.7
20260502033515 78 0 0.0 0.0 0.00 0.00 0.00 72 1014.8
20260502033033 78 0 0.0 0.0 0.00 0.00 0.00 72 1014.8
20260502032515 78 0 0.0 0.0 0.00 0.00 0.00 72 1014.7
20260502032025 78 0 0.0 0.0 0.00 0.00 0.00 72 1014.8
20260502031534 78 0 0.0 0.0 0.00 0.00 0.00 73 1014.8
20260502031016 79 0 0.0 0.0 0.00 0.00 0.00 73 1014.7
20260502030515 79 0 0.0 0.0 0.00 0.00 0.00 73 1014.8
20260502030035 79 0 0.0 0.0 0.00 0.00 0.00 73 1014.7
20260502025518 79 0 0.0 0.0 0.00 0.00 0.00 73 1014.8
20260502025019 79 0 0.0 0.0 0.00 0.00 0.00 73 1014.7